GW4332 Weather Reports


time (UTC)temp
C
wind
direction
speed
KPH
gust
KPH
rain 1hr
cm
rain 24hr
cm
rain mn
cm
humidity
%
barometer
mb
20260509173030 16 331 16.1 20.9 0.00 0.00 0.00 62 1016.7
20260509172030 16 338 16.1 19.3 0.00 0.00 0.00 62 1016.8
20260509171029 16 339 14.5 20.9 0.00 0.00 0.00 62 1016.7
20260509170030 16 352 14.5 19.3 0.00 0.00 0.00 59 1016.7
20260509165030 16 349 12.9 20.9 0.00 0.00 0.00 61 1016.5
20260509164030 16 339 17.7 22.5 0.00 0.00 0.00 59 1016.5
20260509163029 16 352 16.1 22.5 0.00 0.00 0.00 58 1016.6
20260509162030 16 9 14.5 20.9 0.00 0.00 0.00 60 1016.5
20260509161030 17 0 14.5 22.5 0.00 0.00 0.00 60 1016.5
20260509160029 16 354 14.5 20.9 0.00 0.00 0.00 60 1016.4
20260509155030 16 343 16.1 22.5 0.00 0.00 0.00 60 1016.5
20260509154030 16 2 14.5 20.9 0.00 0.00 0.00 59 1016.5
20260509153030 16 352 14.5 22.5 0.00 0.00 0.00 60 1016.6
20260509152029 16 340 16.1 22.5 0.00 0.00 0.00 61 1016.6
20260509151030 16 343 17.7 22.5 0.00 0.00 0.00 61 1016.7
20260509150030 16 348 14.5 20.9 0.00 0.00 0.00 61 1017.0
20260509145030 16 340 17.7 24.1 0.00 0.00 0.00 60 1017.2
20260509144030 16 332 16.1 22.5 0.00 0.00 0.00 61 1017.3
20260509143029 16 1 11.3 22.5 0.00 0.00 0.00 60 1017.5
20260509142030 15 338 17.7 22.5 0.00 0.00 0.00 61 1017.4
20260509141029 16 331 19.3 24.1 0.00 0.00 0.00 60 1017.5
20260509140030 16 339 17.7 24.1 0.00 0.00 0.00 58 1017.6
20260509135030 16 341 16.1 24.1 0.00 0.00 0.00 58 1017.7
20260509134029 16 0 14.5 22.5 0.00 0.00 0.00 61 1017.7
20260509133030 15 335 17.7 24.1 0.00 0.00 0.00 61 1017.9
20260509132029 15 329 17.7 24.1 0.00 0.00 0.00 60 1018.2
20260509131029 15 338 16.1 20.9 0.00 0.00 0.00 61 1018.2
20260509130030 15 335 14.5 20.9 0.00 0.00 0.00 60 1018.4
20260509125029 15 327 17.7 22.5 0.00 0.00 0.00 61 1018.6
20260509124030 15 323 17.7 22.5 0.00 0.00 0.00 62 1018.6
20260509123030 15 327 17.7 24.1 0.00 0.00 0.00 63 1018.6
20260509122029 15 321 19.3 22.5 0.00 0.00 0.00 61 1018.7
20260509121029 16 346 9.7 20.9 0.00 0.00 0.00 58 1018.7
20260509120030 16 69 6.4 19.3 0.00 0.00 0.00 57 1018.7
20260509115029 16 83 6.4 19.3 0.00 0.00 0.00 56 1018.7
20260509114030 16 55 9.7 19.3 0.00 0.00 0.00 55 1018.7
20260509113030 15 12 9.7 20.9 0.00 0.00 0.00 57 1018.7
20260509112029 15 31 12.9 20.9 0.00 0.00 0.00 57 1018.9
20260509111030 15 5 11.3 20.9 0.00 0.00 0.00 58 1018.9
20260509110029 16 37 6.4 14.5 0.00 0.00 0.00 57 1019.0
20260509105030 15 20 8.0 22.5 0.00 0.00 0.00 58 1019.0
20260509104029 15 59 8.0 19.3 0.00 0.00 0.00 56 1019.2
20260509103030 15 61 6.4 19.3 0.00 0.00 0.00 56 1019.4
20260509102029 16 36 6.4 16.1 0.00 0.00 0.00 55 1019.4
20260509101030 16 64 9.7 19.3 0.00 0.00 0.00 56 1019.5
20260509100030 16 61 3.2 17.7 0.00 0.00 0.00 59 1019.6
20260509095030 15 85 4.8 14.5 0.00 0.00 0.00 61 1019.5
20260509094029 15 56 8.0 16.1 0.00 0.00 0.00 61 1019.5
20260509093030 15 78 3.2 19.3 0.00 0.00 0.00 62 1019.4
20260509092029 14 89 6.4 19.3 0.00 0.00 0.00 63 1019.5
20260509091030 14 109 4.8 22.5 0.00 0.00 0.00 65 1019.5
20260509090029 13 102 8.0 22.5 0.00 0.00 0.00 66 1019.5
20260509085030 13 76 9.7 20.9 0.00 0.00 0.00 67 1019.5
20260509084030 13 103 3.2 20.9 0.00 0.00 0.00 69 1019.4
20260509083029 13 130 1.6 22.5 0.00 0.00 0.00 69 1019.5
20260509082030 13 78 3.2 24.1 0.00 0.00 0.00 71 1019.6
20260509081029 13 101 8.0 25.7 0.00 0.00 0.00 72 1019.8
20260509080030 12 72 1.6 17.7 0.00 0.00 0.00 73 1019.8
20260509075030 12 178 0.0 14.5 0.00 0.00 0.00 74 1019.9
20260509074030 12 223 0.0 14.5 0.00 0.00 0.00 74 1019.9
20260509073029 12 120 4.8 19.3 0.00 0.00 0.00 75 1019.8
20260509072030 12 114 3.2 16.1 0.00 0.00 0.00 76 1019.9
20260509071029 12 118 1.6 14.5 0.00 0.00 0.00 77 1019.9
20260509070030 11 324 1.6 17.7 0.00 0.00 0.00 78 1019.9
20260509065029 11 84 1.6 14.5 0.00 0.00 0.00 79 1019.9
20260509064030 11 279 1.6 9.7 0.00 0.00 0.00 80 1020.0
20260509063029 11 68 0.0 12.9 0.00 0.00 0.00 81 1020.1
20260509062030 10 140 1.6 17.7 0.00 0.00 0.00 82 1020.0
20260509061030 10 107 1.6 11.3 0.00 0.00 0.00 82 1020.0
20260509060030 10 171 1.6 14.5 0.00 0.00 0.00 83 1020.1
20260509055030 10 155 0.0 9.7 0.00 0.00 0.00 83 1019.9
20260509054030 9 93 1.6 12.9 0.00 0.00 0.00 83 1019.8
20260509053030 9 114 3.2 12.9 0.00 0.00 0.00 83 1019.7
20260509052029 9 95 1.6 12.9 0.00 0.00 0.00 83 1019.6
20260509051030 9 113 0.0 12.9 0.00 0.00 0.00 83 1019.7
20260509050030 8 118 1.6 11.3 0.00 0.00 0.00 83 1019.6
20260509045029 8 137 1.6 14.5 0.00 0.00 0.00 83 1019.5
20260509044030 8 109 3.2 12.9 0.00 0.00 0.00 83 1019.5
20260509043030 8 113 3.2 12.9 0.00 0.00 0.00 82 1019.5
20260509042030 8 103 3.2 11.3 0.00 0.00 0.00 82 1019.5
20260509041030 8 109 3.2 11.3 0.00 0.00 0.00 81 1019.4
20260509040029 8 159 3.2 14.5 0.00 0.00 0.00 81 1019.4
20260509035030 9 119 3.2 11.3 0.00 0.00 0.00 80 1019.5
20260509034030 9 104 4.8 11.3 0.00 0.00 0.00 80 1019.5
20260509033029 9 103 4.8 9.7 0.00 0.00 0.00 79 1019.4
20260509032030 9 103 3.2 9.7 0.00 0.00 0.00 79 1019.5
20260509031030 9 105 6.4 12.9 0.00 0.00 0.00 78 1019.5
20260509030029 10 106 6.4 11.3 0.00 0.00 0.00 78 1019.5
20260509025030 10 98 6.4 11.3 0.00 0.00 0.00 78 1019.5
20260509024030 10 98 6.4 11.3 0.00 0.00 0.00 77 1019.5
20260509023030 10 102 4.8 9.7 0.00 0.00 0.00 77 1019.6
20260509022030 10 106 3.2 6.4 0.00 0.00 0.00 77 1019.6
20260509021029 10 112 3.2 6.4 0.00 0.00 0.00 76 1019.5
20260509020030 10 104 1.6 4.8 0.00 0.00 0.00 76 1019.6
20260509015030 10 108 3.2 9.7 0.00 0.00 0.00 75 1019.6
20260509014029 10 121 1.6 9.7 0.00 0.00 0.00 75 1019.6
20260509013030 11 95 1.6 8.0 0.00 0.00 0.00 74 1019.6
20260509012029 11 160 0.0 6.4 0.00 0.00 0.00 74 1019.6
20260509011029 11 136 1.6 11.3 0.00 0.00 0.00 74 1019.6
20260509010030 11 112 1.6 11.3 0.00 0.00 0.00 73 1019.6
20260509005030 11 130 3.2 12.9 0.00 0.00 0.00 73 1019.6
20260509004029 11 98 1.6 12.9 0.00 0.00 0.00 73 1019.5
20260509003030 11 105 3.2 11.3 0.00 0.00 0.00 72 1019.5
20260509002029 11 149 1.6 14.5 0.00 0.00 0.00 72 1019.5
20260509001029 11 182 1.6 12.9 0.00 0.00 0.00 71 1019.4
20260509000030 12 145 3.2 14.5 0.00 0.00 0.00 71 1019.3
20260508235030 12 122 1.6 14.5 0.00 0.00 0.00 71 1019.3
20260508234029 12 125 1.6 14.5 0.00 0.00 0.00 70 1019.2
20260508233030 12 237 1.6 12.9 0.00 0.00 0.00 70 1019.3
20260508232030 12 183 1.6 9.7 0.00 0.00 0.00 69 1019.4
20260508231029 12 123 1.6 9.7 0.00 0.00 0.00 69 1019.4
20260508230030 12 102 3.2 9.7 0.00 0.00 0.00 68 1019.3
20260508225030 13 87 1.6 12.9 0.00 0.00 0.00 68 1019.4
20260508224029 13 121 3.2 11.3 0.00 0.00 0.00 67 1019.5
20260508223030 13 114 4.8 14.5 0.00 0.00 0.00 66 1019.5
20260508222030 13 129 1.6 11.3 0.00 0.00 0.00 66 1019.5
20260508221029 13 106 1.6 14.5 0.00 0.00 0.00 65 1019.5
20260508220030 13 149 0.0 11.3 0.00 0.00 0.00 65 1019.5
20260508215030 14 55 1.6 12.9 0.00 0.00 0.00 64 1019.4
20260508214029 14 95 1.6 11.3 0.00 0.00 0.00 64 1019.4
20260508213030 15 106 3.2 11.3 0.00 0.00 0.00 62 1019.3
20260508212029 15 122 0.0 12.9 0.00 0.00 0.00 62 1019.2
20260508211030 15 93 1.6 14.5 0.00 0.00 0.00 61 1019.3
20260508210029 15 151 0.0 6.4 0.00 0.00 0.00 61 1019.2
20260508205030 15 116 3.2 12.9 0.00 0.00 0.00 61 1019.1
20260508204030 15 104 4.8 11.3 0.00 0.00 0.00 62 1019.1
20260508203029 15 86 4.8 6.4 0.00 0.00 0.00 61 1019.1
20260508202030 15 85 3.2 4.8 0.00 0.00 0.00 60 1019.0
20260508201029 15 69 4.8 6.4 0.00 0.00 0.00 59 1019.0
20260508200030 16 57 6.4 8.0 0.00 0.00 0.00 59 1018.9
20260508195030 16 58 4.8 6.4 0.00 0.00 0.00 57 1018.9
20260508194030 16 67 3.2 6.4 0.00 0.00 0.00 56 1018.9
20260508193030 16 59 4.8 6.4 0.00 0.00 0.00 56 1018.7
20260508192029 17 57 3.2 9.7 0.00 0.00 0.00 55 1018.6
20260508191030 17 94 4.8 12.9 0.00 0.00 0.00 50 1018.5
20260508190029 17 107 3.2 11.3 0.00 0.00 0.00 50 1018.4
20260508185030 17 105 3.2 12.9 0.00 0.00 0.00 49 1018.2
20260508184030 18 106 3.2 11.3 0.00 0.00 0.00 48 1018.1
20260508183029 18 105 3.2 12.9 0.00 0.00 0.00 48 1018.1
20260508182030 18 89 1.6 6.4 0.00 0.00 0.00 47 1018.0
20260508181029 18 71 1.6 6.4 0.00 0.00 0.00 47 1018.0
20260508180030 18 85 3.2 6.4 0.00 0.00 0.00 46 1017.9
20260508175030 18 79 1.6 4.8 0.00 0.00 0.00 46 1017.8
20260508174030 18 81 1.6 4.8 0.00 0.00 0.00 48 1017.8